Location: Newark
(52.1031°N, 9.3600°E)
Time: 20:33:44
(UTC+00:00)

Envisat - Pass Details

Date: 25 October 2019
Orbit: 764 x 766 km, 98.1° (Epoch: 20 November)

Event Time Altitude Azimuth Distance (km) Brightness Sun altitude
Rises 04:46:08 0° 29° (NNE) 3,245 6.6 -12.6°
Reaches altitude 10° 04:49:54 10° 58° (ENE) 2,311 6.3 -12.0°
Maximum altitude 04:52:07 13° 84° (E) 2,120 6.7 -11.7°
Drops below altitude 10° 04:54:20 10° 110° (ESE) 2,303 6.9 -11.3°
Sets 04:58:04 0° 138° (SE) 3,222 7.0 -10.8°
